Time,TemperatureF,DewpointF,PressureIn,WindDirection,WindDirectionDegrees,WindSpeedMPH,WindSpeedGustMPH,Humidity,HourlyPrecipIn,Conditions,Clouds,dailyrainin,SoftwareType,DateUTC
2013-06-14 00:00:00,88.4,37.0,29.34,North,356,0.0,-999.0,16,-99.99,,,0.00,weatherlink.com 1.10,2013-06-14 07:00:00,
2013-06-14 00:15:00,87.6,38.0,29.34,North,356,0.0,-999.0,17,-99.99,,,0.00,weatherlink.com 1.10,2013-06-14 07:15:00,
2013-06-14 00:30:00,87.8,36.0,29.34,North,356,0.0,-999.0,16,-99.99,,,0.00,weatherlink.com 1.10,2013-06-14 07:30:00,
2013-06-14 00:45:00,86.5,40.0,29.34,North,356,7.0,-999.0,19,-99.99,,,0.00,weatherlink.com 1.10,2013-06-14 07:45:00,
2013-06-14 01:00:00,84.1,40.0,29.35,North,357,2.0,-999.0,21,-99.99,,,0.00,weatherlink.com 1.10,2013-06-14 08:00:00,
2013-06-14 01:15:00,82.8,42.0,29.36,North,359,5.0,-999.0,24,-99.99,,,0.00,weatherlink.com 1.10,2013-06-14 08:15:00,
2013-06-14 01:30:00,81.8,43.0,29.36,North,359,2.0,-999.0,25,-99.99,,,0.00,weatherlink.com 1.10,2013-06-14 08:30:00,
2013-06-14 01:45:00,81.1,45.0,29.36,North,357,0.0,-999.0,28,-99.99,,,0.00,weatherlink.com 1.10,2013-06-14 08:45:00,
2013-06-14 02:00:00,80.1,43.0,29.36,North,359,0.0,-999.0,27,-99.99,,,0.00,weatherlink.com 1.10,2013-06-14 09:00:00,
2013-06-14 02:15:00,79.6,43.0,29.37,North,359,0.0,-999.0,27,-99.99,,,0.00,weatherlink.com 1.10,2013-06-14 09:15:00,
2013-06-14 02:30:00,79.0,44.0,29.36,North,359,0.0,-999.0,29,-99.99,,,0.00,weatherlink.com 1.10,2013-06-14 09:30:00,
2013-06-14 02:45:00,78.5,44.0,29.36,North,357,0.0,-999.0,29,-99.99,,,0.00,weatherlink.com 1.10,2013-06-14 09:45:00,
2013-06-14 03:00:00,78.8,43.0,29.36,North,357,0.0,-999.0,28,-99.99,,,0.00,weatherlink.com 1.10,2013-06-14 10:00:00,
2013-06-14 03:15:00,78.6,43.0,29.36,North,359,0.0,-999.0,28,-99.99,,,0.00,weatherlink.com 1.10,2013-06-14 10:15:00,
2013-06-14 03:30:00,78.6,46.0,29.37,North,359,0.0,-999.0,32,-99.99,,,0.00,weatherlink.com 1.10,2013-06-14 10:30:00,
2013-06-14 03:45:00,77.9,44.0,29.37,North,359,0.0,-999.0,30,-99.99,,,0.00,weatherlink.com 1.10,2013-06-14 10:45:00,
2013-06-14 04:00:00,77.9,46.0,29.37,North,359,0.0,-999.0,32,-99.99,,,0.00,weatherlink.com 1.10,2013-06-14 11:00:00,
2013-06-14 04:15:00,77.9,41.0,29.37,South,186,0.0,-999.0,27,-99.99,,,0.00,weatherlink.com 1.10,2013-06-14 11:15:00,
2013-06-14 04:30:00,77.6,43.0,29.38,SW,230,0.0,-999.0,29,-99.99,,,0.00,weatherlink.com 1.10,2013-06-14 11:30:00,
2013-06-14 04:45:00,77.0,43.0,29.38,SSE,155,0.0,-999.0,30,-99.99,,,0.00,weatherlink.com 1.10,2013-06-14 11:45:00,
2013-06-14 05:00:00,77.2,44.0,29.38,North,357,0.0,-999.0,31,-99.99,,,0.00,weatherlink.com 1.10,2013-06-14 12:00:00,
2013-06-14 05:15:00,77.0,41.0,29.38,North,357,0.0,-999.0,28,-99.99,,,0.00,weatherlink.com 1.10,2013-06-14 12:15:00,
2013-06-14 05:30:00,76.5,43.0,29.39,North,359,0.0,-999.0,30,-99.99,,,0.00,weatherlink.com 1.10,2013-06-14 12:30:00,
2013-06-14 05:45:00,76.7,42.0,29.39,North,354,0.0,-999.0,29,-99.99,,,0.00,weatherlink.com 1.10,2013-06-14 12:45:00,
2013-06-14 06:00:00,77.0,42.0,29.39,WNW,299,0.0,-999.0,29,-99.99,,,0.00,weatherlink.com 1.10,2013-06-14 13:00:00,
2013-06-14 06:15:00,78.1,41.0,29.40,WNW,294,0.0,-999.0,27,-99.99,,,0.00,weatherlink.com 1.10,2013-06-14 13:15:00,
2013-06-14 06:30:00,78.5,43.0,29.40,NW,319,0.0,-999.0,28,-99.99,,,0.00,weatherlink.com 1.10,2013-06-14 13:30:00,
2013-06-14 06:45:00,78.5,42.0,29.40,NNW,337,0.0,-999.0,27,-99.99,,,0.00,weatherlink.com 1.10,2013-06-14 13:45:00,
2013-06-14 07:00:00,78.5,46.0,29.40,WNW,294,0.0,-999.0,32,-99.99,,,0.00,weatherlink.com 1.10,2013-06-14 14:00:00,
2013-06-14 07:15:00,79.4,47.0,29.41,North,350,0.0,-999.0,32,-99.99,,,0.00,weatherlink.com 1.10,2013-06-14 14:15:00,
2013-06-14 07:30:00,82.0,46.0,29.41,North,359,3.0,-999.0,28,-99.99,,,0.00,weatherlink.com 1.10,2013-06-14 14:30:00,
2013-06-14 07:45:00,84.0,47.0,29.42,North,359,2.0,-999.0,27,-99.99,,,0.00,weatherlink.com 1.10,2013-06-14 14:45:00,
2013-06-14 08:00:00,85.7,46.0,29.42,ENE,73,0.0,-999.0,25,-99.99,,,0.00,weatherlink.com 1.10,2013-06-14 15:00:00,
2013-06-14 08:15:00,87.4,45.0,29.42,NE,47,0.0,-999.0,23,-99.99,,,0.00,weatherlink.com 1.10,2013-06-14 15:15:00,
2013-06-14 08:30:00,89.0,45.0,29.42,North,359,0.0,-999.0,22,-99.99,,,0.00,weatherlink.com 1.10,2013-06-14 15:30:00,
2013-06-14 08:45:00,91.0,46.0,29.42,North,357,1.0,-999.0,21,-99.99,,,0.00,weatherlink.com 1.10,2013-06-14 15:45:00,
2013-06-14 09:00:00,92.5,47.0,29.42,North,357,2.0,-999.0,21,-99.99,,,0.00,weatherlink.com 1.10,2013-06-14 16:00:00,
2013-06-14 09:15:00,93.6,47.0,29.42,North,356,1.0,-999.0,20,-99.99,,,0.00,weatherlink.com 1.10,2013-06-14 16:15:00,
2013-06-14 09:30:00,94.3,50.0,29.42,North,356,1.0,-999.0,22,-99.99,,,0.00,weatherlink.com 1.10,2013-06-14 16:30:00,
2013-06-14 09:45:00,95.1,47.0,29.42,North,357,0.0,-999.0,19,-99.99,,,0.00,weatherlink.com 1.10,2013-06-14 16:45:00,
2013-06-14 10:00:00,96.1,45.0,29.41,North,357,0.0,-999.0,17,-99.99,,,0.00,weatherlink.com 1.10,2013-06-14 17:00:00,
2013-06-14 10:16:00,98.0,46.0,29.41,North,357,1.0,-999.0,17,-99.99,,,0.00,weatherlink.com 1.10,2013-06-14 17:16:00,
2013-06-14 10:31:00,99.2,44.0,29.41,North,356,0.0,-999.0,15,-99.99,,,0.00,weatherlink.com 1.10,2013-06-14 17:31:00,
2013-06-14 10:46:00,99.9,43.0,29.40,North,356,6.0,-999.0,14,-99.99,,,0.00,weatherlink.com 1.10,2013-06-14 17:46:00,
2013-06-14 11:01:00,99.0,44.0,29.40,North,356,5.0,-999.0,15,-99.99,,,0.00,weatherlink.com 1.10,2013-06-14 18:01:00,
2013-06-14 11:16:00,100.7,42.0,29.39,North,357,6.0,-999.0,13,-99.99,,,0.00,weatherlink.com 1.10,2013-06-14 18:16:00,
2013-06-14 11:31:00,100.7,45.0,29.39,North,357,2.0,-999.0,15,-99.99,,,0.00,weatherlink.com 1.10,2013-06-14 18:31:00,
2013-06-14 11:46:00,101.7,46.0,29.38,North,357,5.0,-999.0,15,-99.99,,,0.00,weatherlink.com 1.10,2013-06-14 18:46:00,
2013-06-14 12:01:00,101.0,47.0,29.38,North,357,4.0,-999.0,16,-99.99,,,0.00,weatherlink.com 1.10,2013-06-14 19:01:00,
2013-06-14 12:16:00,102.0,48.0,29.38,North,357,9.0,-999.0,16,-99.99,,,0.00,weatherlink.com 1.10,2013-06-14 19:16:00,
2013-06-14 12:31:00,102.8,49.0,29.37,North,357,2.0,-999.0,16,-99.99,,,0.00,weatherlink.com 1.10,2013-06-14 19:31:00,
2013-06-14 12:46:00,102.5,47.0,29.36,North,357,2.0,-999.0,15,-99.99,,,0.00,weatherlink.com 1.10,2013-06-14 19:46:00,
2013-06-14 13:01:00,103.6,46.0,29.36,North,357,11.0,-999.0,14,-99.99,,,0.00,weatherlink.com 1.10,2013-06-14 20:01:00,
2013-06-14 13:16:00,103.6,46.0,29.36,North,356,9.0,-999.0,14,-99.99,,,0.00,weatherlink.com 1.10,2013-06-14 20:16:00,
2013-06-14 13:31:00,103.1,45.0,29.35,North,356,13.0,-999.0,14,-99.99,,,0.00,weatherlink.com 1.10,2013-06-14 20:31:00,
2013-06-14 13:46:00,103.6,44.0,29.34,North,356,5.0,-999.0,13,-99.99,,,0.00,weatherlink.com 1.10,2013-06-14 20:46:00,
2013-06-14 14:01:00,104.4,44.0,29.34,North,357,6.0,-999.0,13,-99.99,,,0.00,weatherlink.com 1.10,2013-06-14 21:01:00,
2013-06-14 14:16:00,104.9,45.0,29.33,North,353,11.0,-999.0,13,-99.99,,,0.00,weatherlink.com 1.10,2013-06-14 21:16:00,
2013-06-14 14:31:00,104.9,47.0,29.33,North,357,1.0,-999.0,14,-99.99,,,0.00,weatherlink.com 1.10,2013-06-14 21:31:00,
2013-06-14 14:46:00,106.0,48.0,29.32,North,357,7.0,-999.0,14,-99.99,,,0.00,weatherlink.com 1.10,2013-06-14 21:46:00,
2013-06-14 15:01:00,106.2,48.0,29.32,North,357,7.0,-999.0,14,-99.99,,,0.00,weatherlink.com 1.10,2013-06-14 22:01:00,
2013-06-14 15:16:00,105.1,47.0,29.31,North,354,5.0,-999.0,14,-99.99,,,0.00,weatherlink.com 1.10,2013-06-14 22:16:00,
2013-06-14 15:31:00,104.6,47.0,29.31,North,354,0.0,-999.0,14,-99.99,,,0.00,weatherlink.com 1.10,2013-06-14 22:31:00,
2013-06-14 15:46:00,105.4,45.0,29.30,North,354,3.0,-999.0,13,-99.99,,,0.00,weatherlink.com 1.10,2013-06-14 22:46:00,
2013-06-14 16:01:00,105.4,43.0,29.30,North,354,4.0,-999.0,12,-99.99,,,0.00,weatherlink.com 1.10,2013-06-14 23:01:00,
2013-06-14 16:16:00,105.4,43.0,29.30,North,357,2.0,-999.0,12,-99.99,,,0.00,weatherlink.com 1.10,2013-06-14 23:16:00,
2013-06-14 16:31:00,105.1,38.0,29.29,North,357,2.0,-999.0,10,-99.99,,,0.00,weatherlink.com 1.10,2013-06-14 23:31:00,
2013-06-14 16:46:00,104.6,32.0,29.28,North,357,1.0,-999.0,8,-99.99,,,0.00,weatherlink.com 1.10,2013-06-14 23:46:00,
2013-06-14 17:01:00,104.6,32.0,29.28,North,356,4.0,-999.0,8,-99.99,,,0.00,weatherlink.com 1.10,2013-06-15 00:01:00,
2013-06-14 17:16:00,104.1,32.0,29.27,NW,308,1.0,-999.0,8,-99.99,,,0.00,weatherlink.com 1.10,2013-06-15 00:16:00,
2013-06-14 17:31:00,103.8,35.0,29.27,North,357,6.0,-999.0,9,-99.99,,,0.00,weatherlink.com 1.10,2013-06-15 00:31:00,
2013-06-14 17:46:00,102.3,33.0,29.27,North,357,3.0,-999.0,9,-99.99,,,0.00,weatherlink.com 1.10,2013-06-15 00:46:00,
2013-06-14 18:01:00,101.5,35.0,29.27,North,357,5.0,-999.0,10,-99.99,,,0.00,weatherlink.com 1.10,2013-06-15 01:01:00,
2013-06-14 18:16:00,101.0,32.0,29.27,North,357,6.0,-999.0,9,-99.99,,,0.00,weatherlink.com 1.10,2013-06-15 01:16:00,
2013-06-14 18:31:00,100.4,32.0,29.27,North,356,0.0,-999.0,9,-99.99,,,0.00,weatherlink.com 1.10,2013-06-15 01:31:00,
2013-06-14 18:46:00,99.0,36.0,29.27,North,356,2.0,-999.0,11,-99.99,,,0.00,weatherlink.com 1.10,2013-06-15 01:46:00,
2013-06-14 19:01:00,97.5,35.0,29.27,North,356,5.0,-999.0,11,-99.99,,,0.00,weatherlink.com 1.10,2013-06-15 02:01:00,
2013-06-14 19:16:00,96.6,34.0,29.28,North,356,3.0,-999.0,11,-99.99,,,0.00,weatherlink.com 1.10,2013-06-15 02:16:00,
2013-06-14 19:31:00,95.9,28.0,29.28,North,0,3.0,-999.0,9,-99.99,,,0.00,weatherlink.com 1.10,2013-06-15 02:31:00,
2013-06-14 19:46:00,94.9,30.0,29.28,North,357,4.0,-999.0,10,-99.99,,,0.00,weatherlink.com 1.10,2013-06-15 02:46:00,
2013-06-14 20:01:00,93.8,34.0,29.28,North,357,4.0,-999.0,12,-99.99,,,0.00,weatherlink.com 1.10,2013-06-15 03:01:00,
2013-06-14 20:16:00,92.7,35.0,29.28,North,357,5.0,-999.0,13,-99.99,,,0.00,weatherlink.com 1.10,2013-06-15 03:16:00,
2013-06-14 20:31:00,91.6,36.0,29.29,North,359,6.0,-999.0,14,-99.99,,,0.00,weatherlink.com 1.10,2013-06-15 03:31:00,
2013-06-14 20:46:00,90.7,37.0,29.29,North,357,5.0,-999.0,15,-99.99,,,0.00,weatherlink.com 1.10,2013-06-15 03:46:00,
2013-06-14 21:01:00,89.9,36.0,29.30,North,357,4.0,-999.0,15,-99.99,,,0.00,weatherlink.com 1.10,2013-06-15 04:01:00,
2013-06-14 21:16:00,89.3,38.0,29.30,North,357,2.0,-999.0,16,-99.99,,,0.00,weatherlink.com 1.10,2013-06-15 04:16:00,
2013-06-14 21:31:00,88.6,38.0,29.31,North,357,3.0,-999.0,17,-99.99,,,0.00,weatherlink.com 1.10,2013-06-15 04:31:00,
2013-06-14 21:46:00,88.2,38.0,29.31,North,357,0.0,-999.0,17,-99.99,,,0.00,weatherlink.com 1.10,2013-06-15 04:46:00,
2013-06-14 22:01:00,88.2,38.0,29.31,North,357,0.0,-999.0,17,-99.99,,,0.00,weatherlink.com 1.10,2013-06-15 05:01:00,
2013-06-14 22:16:00,88.0,38.0,29.31,North,357,1.0,-999.0,17,-99.99,,,0.00,weatherlink.com 1.10,2013-06-15 05:16:00,
2013-06-14 22:31:00,88.0,39.0,29.31,North,357,2.0,-999.0,18,-99.99,,,0.00,weatherlink.com 1.10,2013-06-15 05:31:00,
2013-06-14 22:46:00,88.4,41.0,29.32,North,357,0.0,-999.0,19,-99.99,,,0.00,weatherlink.com 1.10,2013-06-15 05:46:00,
2013-06-14 23:01:00,88.4,40.0,29.32,North,357,0.0,-999.0,18,-99.99,,,0.00,weatherlink.com 1.10,2013-06-15 06:01:00,
2013-06-14 23:16:00,88.2,41.0,29.32,North,359,1.0,-999.0,19,-99.99,,,0.00,weatherlink.com 1.10,2013-06-15 06:16:00,
2013-06-14 23:31:00,89.5,41.0,29.32,North,357,0.0,-999.0,18,-99.99,,,0.00,weatherlink.com 1.10,2013-06-15 06:31:00,
2013-06-14 23:46:00,89.7,42.0,29.32,North,356,0.0,-999.0,19,-99.99,,,0.00,weatherlink.com 1.10,2013-06-15 06:46:00,